This is the latest recevied weather packets stored in our database for station/object N7WSS. If no packets are shown the sender has not sent any weather packets the latest 10 day(s).
| Time | Temp. | Humidity | Pressure | Rain* | Wind** | Luminosity | Snow |
|---|---|---|---|---|---|---|---|
| 1787476404 | 30.56° C | 36% | 1013 hPa | 0 mm | - | - | - |
| 1787476100 | 30.56° C | 35% | 1012.9 hPa | 0 mm | - | - | - |
| 1787475796 | 30.56° C | 34% | 1013.1 hPa | 0 mm | - | - | - |
| 1787475492 | 31.11° C | 34% | 1013 hPa | 0 mm | - | - | - |
| 1787475187 | 31.11° C | 34% | 1012.9 hPa | 0 mm | - | - | - |
| 1787474883 | 31.11° C | 33% | 1013.3 hPa | 0 mm | - | - | - |
| 1787474578 | 31.67° C | 32% | 1013.1 hPa | 0 mm | - | - | - |
| 1787474274 | 31.67° C | 31% | 1013.1 hPa | 0 mm | - | - | - |
| 1787473970 | 32.22° C | 30% | 1013 hPa | 0 mm | - | - | - |
| 1787473669 | 31.67° C | 30% | 1013 hPa | 0 mm | - | - | - |
| 1787473368 | 31.11° C | 32% | 1013.5 hPa | 0 mm | - | - | - |
| 1787473064 | 31.11° C | 33% | 1013.2 hPa | 0 mm | - | - | - |
| 1787472760 | 31.67° C | 31% | 1012.9 hPa | 0 mm | - | - | - |
| 1787472456 | 32.22° C | 31% | 1013.1 hPa | 0 mm | - | - | - |
| 1787472156 | 32.78° C | 30% | 1013.3 hPa | 0 mm | - | - | - |
| 1787471851 | 32.78° C | 30% | 1013.2 hPa | 0 mm | - | - | - |
| 1787471548 | 33.33° C | 29% | 1013 hPa | 0 mm | - | - | - |
| 1787471243 | 33.33° C | 29% | 1013.1 hPa | 0 mm | - | - | - |
| 1787470940 | 33.33° C | 29% | 1013.2 hPa | 0 mm | - | - | - |
| 1787470635 | 33.33° C | 29% | 1013.3 hPa | 0 mm | - | - | - |
| 1787470332 | 33.33° C | 29% | 1013.5 hPa | 0 mm | - | - | - |
| 1787470028 | 33.33° C | 29% | 1013.7 hPa | 0 mm | - | - | - |
| 1787469724 | 33.33° C | 30% | 1013.3 hPa | 0 mm | - | - | - |
| 1787469424 | 33.33° C | 30% | 1013.6 hPa | 0 mm | - | - | - |
| 1787469119 | 32.78° C | 31% | 1013.7 hPa | 0 mm | - | - | - |
* Rain latest hour (hover to see other rain measurements)
** Current wind speed in m/s (hover to see current wind gust speed)